CAPE
3 2 5 6 4 5 3 3 2 2 1 1 0 2 1 0 0 0 0 0 0 0 0 1 1 2 0 0 0 0 193 381 0 0 0 0 0 0 0 0 0 0 2 15 52 7 46
2 2 5 9 7 5 3 3 2 1 1 2 3 5 4 4 2 2 1 1 1 0 0 1 1 0 0 0 0 0 0 0 0 0 0 0 0 0 0 0 0 19 31 48 29 61 52
6 4 4 5 2 3 3 3 3 1 1 1 3 5 4 3 1 0 2 2 0 0 0 2 1 0 0 0 0 0 0 0 0 0 0 0 0 0 0 0 0 23 2 0 26 61 198
11 8 4 9 9 9 8 3 6 4 2 2 2 5 5 3 3 2 2 2 0 0 0 1 2 0 0 0 0 0 0 0 0 0 0 0 0 0 0 0 0 0 0 0 0 56 161
17 21 22 17 11 10 8 7 6 5 1 3 2 2 3 3 3 2 1 1 0 0 0 2 0 0 0 0 0 0 0 0 0 0 0 0 0 0 0 0 0 0 0 0 0 0 78
28 20 20 10 14 14 12 8 4 4 2 2 3 0 0 1 2 1 1 0 0 0 0 0 0 0 0 0 0 0 0 0 0 0 0 0 0 0 0 0 0 0 0 0 0 0 17
13 8 2 4 14 19 15 11 7 5 4 2 0 0 0 0 0 1 0 0 0 0 0 0 0 0 0 0 0 0 0 0 0 0 0 0 0 0 0 0 0 0 0 0 0 0 97
12 6 2 10 24 18 18 13 7 3 4 4 0 0 1 1 0 0 0 0 0 0 0 0 0 0 0 0 0 0 0 0 0 0 0 0 0 0 0 0 0 0 0 0 0 0 0
15 22 26 22 20 20 16 15 10 3 3 2 2 2 3 2 0 0 0 0 0 0 0 0 0 0 0 0 0 0 0 0 0 0 0 0 0 0 0 0 0 0 0 0 0 3 3
28 33 35 25 21 17 16 16 15 6 3 2 3 3 4 2 0 0 0 0 0 0 0 0 0 0 0 0 0 0 0 0 0 0 0 0 0 0 0 0 0 0 0 0 16 23 6
41 38 34 32 23 19 15 19 14 7 3 5 4 5 4 0 0 0 0 0 0 0 0 0 0 0 0 0 0 0 0 0 0 0 0 0 0 0 0 0 0 0 0 0 43 28 6
36 33 36 33 29 17 15 16 10 4 5 5 4 1 8 0 0 0 0 0 0 0 0 0 0 0 0 0 0 0 0 0 0 0 0 0 0 0 0 0 0 0 0 0 0 0 7
27 19 23 34 26 24 25 17 13 4 3 4 0 0 2 0 0 0 0 0 0 0 0 0 0 0 0 0 0 0 0 0 0 0 0 0 0 0 0 0 0 0 0 0 0 0 0
19 36 27 33 23 29 30 28 23 9 4 3 0 0 0 0 0 0 0 0 0 0 0 0 0 0 0 0 0 0 0 0 0 0 0 0 0 0 0 0 0 0 0 0 0 0 0
15 24 26 24 25 32 30 24 14 5 2 0 0 0 0 0 0 0 0 0 0 0 0 0 0 0 0 0 0 0 0 0 0 0 0 0 0 0 0 0 0 0 0 0 0 0 0
16 26 17 22 26 26 21 17 10 7 3 0 0 0 0 0 0 0 0 0 0 0 0 0 0 0 0 0 0 0 0 0 0 0 0 0 0 0 0 0 0 0 0 0 0 0 0
19 23 14 17 27 25 23 20 12 2 1 0 0 0 0 0 0 0 0 0 0 0 0 0 0 0 0 0 0 0 0 0 0 0 0 0 0 0 0 0 0 0 0 0 0 0 0
27 33 30 22 17 16 23 18 6 0 0 0 0 0 0 0 0 0 0 0 0 0 0 0 0 0 0 0 0 0 0 0 0 0 0 0 0 0 0 0 0 0 0 0 0 0 0
36 34 24 16 19 5 17 17 7 0 3 3 0 0 0 0 0 0 0 0 0 0 0 0 0 0 0 0 0 0 0 0 0 0 0 0 0 0 0 0 0 0 0 0 0 0 0
27 31 20 20 8 9 16 10 3 0 0 7 0 0 0 0 0 0 0 0 0 0 0 0 0 0 0 0 0 0 0 0 1 0 0 0 0 0 0 0 0 0 0 0 0 0 0
26 21 24 35 24 10 21 13 4 0 0 3 0 0 0 0 0 0 0 0 0 0 0 0 0 0 0 0 0 20 79 96 37 0 1 0 0 0 0 0 0 0 0 0 0 0 0
17 23 22 22 30 29 15 23 15 2 0 0 0 0 0 0 0 0 0 0 0 0 0 0 36 1 0 1 55 56 9 21 57 32 0 0 0 0 0 0 0 0 0 0 0 0 0
26 23 28 25 19 28 23 24 18 10 1 0 0 0 0 0 0 0 0 0 0 0 0 22 0 3 0 0 0 0 0 0 19 9 4 0 0 0 0 0 0 0 0 0 0 0 0
45 42 45 43 45 42 34 18 28 20 19 28 0 3 0 0 0 0 0 0 0 0 0 0 0 0 1 0 0 9 0 1 26 6 0 0 0 0 0 0 0 0 0 12 14 10 2
51 52 54 53 50 45 48 36 22 31 24 3 1 2 0 0 0 0 0 0 0 0 0 0 0 0 0 0 0 0 27 26 63 0 41 17 4 10 0 0 0 21 26 18 24 29 15
62 65 60 65 62 56 52 42 34 42 30 2 0 0 0 0 0 0 0 0 0 0 0 0 0 0 0 0 0 0 4 43 99 34 0 40 3 49 5 3 3 6 77 60 36 70 44
65 67 58 76 83 65 63 48 39 34 36 16 0 0 0 1 0 0 0 0 0 0 0 0 0 0 0 0 0 0 0 0 21 30 30 72 84 9 0 0 0 20 118 67 39 70 47
73 75 76 76 63 63 56 55 47 42 29 15 1 0 0 10 0 0 0 0 0 0 0 0 0 0 0 5 1 0 0 0 6 3 17 194 179 4 10 5 21 19 134 295 71 26 0
79 71 59 65 70 68 66 58 54 50 27 17 2 0 0 0 0 0 0 0 0 0 0 0 0 0 0 0 0 0 149 15 16 227 88 159 37 190 209 36 4 0 0 0 0 0 0
CIN
-1 0 0 0 0 0 0 0 0 0 0 0 0 0 0 0 0 0 0 0 0 0 0 0 0 0 0 0 0 0 -462 -741 0 0 0 0 0 0 0 0 0 0 -32 -124 -140 -63 -146
0 0 0 0 0 0 0 0 0 0 0 0 0 0 0 0 0 0 0 0 0 0 0 0 0 0 0 0 0 0 0 0 0 0 0 0 0 0 0 0 0 -64 -131 -147 -168 -180 -192
0 0 0 0 0 0 0 0 0 0 0 0 0 0 0 0 0 0 0 0 0 0 0 0 0 0 0 0 0 0 0 0 0 0 0 0 0 0 0 0 0 -98 -23 -10 -189 -203 -159
0 0 0 0 0 0 0 0 0 0 0 0 0 0 0 0 0 0 0 0 0 0 0 0 0 0 0 0 0 0 0 0 0 0 0 0 0 0 0 0 0 0 0 0 0 -167 -178
0 0 0 0 0 0 0 0 0 0 0 0 0 0 0 0 0 0 0 0 0 0 0 0 0 0 0 0 0 0 0 0 0 0 0 0 0 0 0 0 0 0 0 0 0 0 -173
0 0 0 0 0 0 0 0 0 0 0 0 0 0 0 0 0 0 0 0 0 0 0 0 0 0 0 0 0 0 0 0 0 0 0 0 0 0 0 0 0 0 0 0 0 0 -36
0 0 0 0 0 0 0 0 0 0 0 0 0 0 0 0 0 0 0 0 0 0 0 0 0 0 0 0 0 0 0 0 0 0 0 0 0 0 0 0 0 0 0 0 0 0 -189
0 0 0 0 0 0 0 0 0 0 0 0 0 0 0 0 0 0 0 0 0 0 0 0 0 0 0 0 0 0 0 0 0 0 0 0 0 0 0 0 0 0 0 0 0 0 0
0 0 0 0 0 0 0 0 0 0 0 0 0 0 0 0 0 0 0 0 0 0 0 0 0 0 0 0 0 0 0 0 0 0 0 0 0 0 0 0 0 0 0 0 0 -62 -36
0 0 0 0 0 0 0 0 0 0 0 0 0 0 0 0 0 0 0 0 0 0 0 0 0 0 0 0 0 0 0 0 0 0 0 0 0 0 0 0 0 0 0 -14 -82 -65 -55
0 0 0 0 0 0 0 0 0 0 0 0 0 0 -1 0 0 0 0 0 0 0 0 0 0 0 0 0 0 0 0 0 0 0 0 0 0 0 0 0 0 0 0 0 -90 -82 -129
0 0 0 0 -1 0 0 0 0 0 0 0 0 0 0 0 0 0 0 0 0 0 0 0 0 0 0 0 0 0 0 0 0 0 0 0 0 0 0 0 0 0 0 0 0 0 -79
0 0 0 0 -1 0 0 0 0 0 0 0 0 0 0 0 0 0 0 0 0 0 0 0 0 0 0 0 0 0 0 0 0 0 0 0 0 0 0 0 0 0 0 0 0 0 0
0 0 0 -2 0 0 0 0 0 0 0 0 0 0 0 0 0 0 0 0 0 0 0 0 0 0 0 0 0 0 0 0 0 0 0 0 0 0 0 0 0 0 0 0 0 0 0
0 0 0 0 0 0 0 0 0 0 0 0 0 0 0 0 0 0 0 0 0 0 0 0 0 0 0 0 0 0 0 0 0 0 0 0 0 0 0 0 0 0 0 0 0 0 0
0 0 0 0 0 0 0 0 0 0 0 0 0 0 0 0 0 0 0 0 0 0 0 0 0 0 0 0 0 0 0 0 0 0 0 0 0 0 0 0 0 0 0 0 0 0 0
0 0 -2 -2 0 0 0 0 0 0 0 0 0 0 0 0 0 0 0 0 0 0 0 0 0 0 0 0 0 0 0 0 0 0 0 0 0 0 0 0 0 0 0 0 0 0 0
0 0 -1 0 0 0 0 0 0 0 0 0 0 0 0 0 0 0 0 0 0 0 0 0 0 0 0 0 0 0 0 0 0 0 0 0 0 0 0 0 0 0 0 0 0 0 0
0 0 0 0 0 0 0 0 -1 0 -1 0 0 0 0 0 0 0 0 0 0 0 0 0 0 0 0 0 0 0 0 -12 0 0 0 0 0 0 0 0 0 0 0 0 0 0 0
0 0 0 0 0 0 0 0 -1 0 0 0 0 0 0 0 0 0 0 0 0 0 0 0 0 0 0 0 0 0 0 0 -16 0 0 0 0 0 0 0 0 0 0 0 0 0 0
0 0 0 0 -1 0 0 0 0 0 0 0 0 0 0 0 0 0 0 0 0 0 0 0 0 0 0 0 0 -26 -130 -148 -110 0 -59 0 0 0 0 0 0 0 0 0 0 0 0
0 0 0 0 0 0 0 0 0 -3 0 0 0 0 0 0 0 0 0 0 0 0 0 0 -212 -97 0 -24 -92 -67 -181 -235 -188 -183 0 0 0 0 0 0 0 0 0 0 0 0 0
0 0 0 -1 -1 -1 -1 0 0 -2 -3 0 0 0 0 0 0 0 0 0 0 0 0 -266 0 -228 -29 0 0 0 0 0 -179 -260 -208 0 0 0 0 0 0 0 0 0 0 0 0
0 -1 -2 -1 -2 -1 -2 -1 0 -1 -3 -1 -1 0 0 0 0 0 0 0 0 0 0 0 0 0 -13 0 0 -140 0 -126 -234 -264 -336 0 0 0 0 0 0 0 0 -136 -260 -256 -170
0 0 -1 -1 -1 0 -2 -1 -1 0 -1 -8 -6 0 0 0 0 0 0 0 0 0 0 0 0 0 0 0 0 -37 -157 -144 -146 -10 -406 -597 -346 -291 0 0 0 -75 -257 -201 -117 -175 -377
0 0 0 0 0 -2 -1 -1 -1 0 -1 -2 0 0 0 0 0 0 0 0 0 0 0 0 0 0 0 0 0 0 -99 -65 -63 -95 0 -336 -361 -240 -516 -42 -55 -343 -478 -478 -346 -147 -279
0 0 -1 0 0 0 -2 0 0 0 0 -4 0 0 0 -7 0 0 0 0 0 0 0 0 0 0 0 0 0 0 0 0 -141 -191 -341 -313 -381 -232 -24 0 0 -449 -520 -353 -161 -220 -419
0 0 0 -1 -1 0 0 0 -2 0 0 0 0 0 -1 -2 0 0 0 0 0 0 0 0 0 0 0 -190 -75 0 0 -62 -145 -343 -334 -318 -178 -312 -218 -237 -229 -609 -406 -254 -419 -183 -32
0 0 -2 0 0 -1 0 -1 -1 0 0 0 -1 0 0 0 0 0 0 0 0 0 0 0 0 0 0 0 0 0 -135 -162 -184 -76 -238 -177 -70 -218 -178 -287 -502 0 0 0 0 0 0
Wind_Speed
18 18 18 19 20 21 21 22 21 21 23 24 24 24 24 25 26 24 23 21 20 20 19 17 13 11 5 1 14 4 3 9 9 6 7 5 1 2 4 3 4 16 13 14 14 10 10
19 19 19 19 19 20 21 21 22 22 23 23 23 23 23 23 24 25 23 21 21 20 17 14 10 9 3 4 7 8 8 9 8 8 7 7 5 5 6 5 3 12 24 21 16 10 7
18 19 19 19 20 19 20 21 22 22 22 23 23 24 25 24 25 26 25 23 24 23 17 11 7 3 2 19 3 5 6 5 8 8 5 6 8 2 5 10 6 25 20 13 13 11 8
15 17 18 18 19 18 19 20 21 21 22 22 23 24 25 26 26 26 25 26 27 23 12 6 4 1 10 5 6 9 3 5 5 5 5 9 2 4 5 6 7 8 14 9 7 14 10
15 16 17 17 18 19 19 20 20 22 22 23 24 24 26 26 27 27 27 29 27 11 4 6 3 3 13 8 4 11 8 7 5 5 6 10 2 7 5 2 6 6 9 12 6 5 10
16 17 17 19 19 19 19 20 21 21 22 23 24 25 25 27 27 26 28 28 9 4 3 6 5 3 6 4 6 6 8 11 4 2 4 4 3 2 4 5 5 5 8 17 15 11 3
18 19 20 20 20 19 20 20 22 22 23 23 24 25 25 26 27 24 17 8 5 2 2 7 9 8 18 7 6 5 5 6 4 5 6 4 3 6 9 8 6 5 7 12 10 11 9
18 19 20 19 19 20 21 21 22 23 23 24 24 25 26 27 29 26 5 2 4 3 13 11 18 16 20 7 9 10 7 7 6 7 5 4 7 11 6 4 6 4 6 8 2 12 8
17 18 18 18 19 20 20 22 22 23 24 24 24 25 26 29 32 3 4 7 7 6 5 12 15 12 14 10 15 17 13 8 5 7 6 7 8 7 5 8 4 6 8 10 11 6 7
15 16 18 19 19 19 20 21 22 23 24 24 23 24 24 31 4 7 6 7 9 5 4 11 6 10 8 10 8 11 14 10 6 14 6 7 11 7 8 9 7 8 10 14 8 16 8
14 15 17 19 18 19 20 22 23 23 23 25 24 24 20 12 7 5 7 12 13 4 5 6 6 5 10 10 4 8 14 5 11 7 8 10 10 10 9 16 7 14 8 12 11 16 8
15 16 17 18 18 19 21 22 22 24 25 24 25 24 20 5 2 13 13 15 3 6 10 8 5 6 8 7 7 7 12 6 6 5 4 10 7 8 11 17 9 14 5 7 6 5 2
16 16 17 17 18 20 21 22 24 24 26 27 27 28 14 5 7 3 5 4 5 5 5 8 4 6 10 8 9 6 17 13 15 7 8 4 17 10 9 6 7 4 7 2 3 1 8
16 15 16 17 18 19 21 22 23 25 27 29 31 32 8 8 8 8 2 5 5 10 16 6 10 14 4 3 9 10 8 13 11 6 3 9 12 15 6 11 11 8 11 9 7 3 6
16 16 16 17 18 19 20 21 23 25 28 32 30 4 6 5 12 5 4 4 11 8 3 3 7 7 5 3 3 11 11 17 17 12 14 6 9 8 11 11 12 9 4 11 8 1 4
17 17 16 16 17 18 20 21 23 26 28 32 8 5 6 4 14 6 4 8 8 4 7 9 1 4 8 5 7 10 12 14 17 14 9 8 4 8 14 5 7 15 8 4 4 7 4
17 16 16 16 17 18 20 21 23 25 27 27 2 6 5 13 6 5 5 9 7 6 11 4 4 9 13 16 14 11 16 13 24 20 12 12 6 14 1 6 11 2 3 5 7 6 7
17 15 14 15 17 18 19 20 21 22 26 7 5 5 3 3 4 3 4 5 4 8 8 10 7 15 13 17 21 18 22 18 25 24 12 11 8 14 18 12 8 9 10 8 8 5 1
16 15 15 15 16 19 19 20 19 19 17 8 5 6 7 5 3 4 7 9 8 10 11 7 10 15 14 16 16 10 8 10 13 26 20 11 7 8 9 8 3 8 6 7 6 6 7
16 17 17 15 16 18 18 18 18 19 16 5 3 5 6 5 3 1 5 8 10 7 12 12 20 20 15 16 9 5 6 6 9 26 30 14 6 12 14 10 5 6 7 7 9 6 6
17 18 18 16 15 16 17 18 18 20 22 1 3 6 1 5 4 9 3 6 12 14 8 5 11 4 7 9 6 4 6 8 2 11 22 13 10 7 10 19 10 14 12 9 6 9 10
18 18 17 17 16 15 17 16 17 19 24 2 2 4 6 5 7 5 5 2 9 15 7 6 4 8 10 3 6 3 2 3 3 10 8 6 8 10 16 7 8 7 9 14 7 5 2
17 17 17 17 16 15 14 14 15 15 11 3 4 5 2 5 6 4 1 9 15 17 6 3 3 4 3 5 14 10 8 6 7 4 5 11 8 6 9 7 6 4 2 6 3 5 6
18 18 17 16 16 15 14 12 13 11 7 2 3 4 2 6 3 5 13 16 16 16 9 7 4 2 4 7 11 3 6 6 3 3 1 5 8 4 6 5 5 8 1 13 11 4 7
18 17 18 16 16 16 15 13 12 11 10 2 2 3 3 5 4 13 15 10 14 14 5 3 8 4 6 4 6 7 5 7 5 7 9 3 6 6 7 5 5 3 5 5 7 5 6
17 18 17 15 16 16 15 14 12 11 10 4 6 6 2 2 5 6 10 5 5 6 8 5 9 9 6 3 4 1 2 3 3 8 4 10 9 7 3 7 6 1 6 5 7 7 9
17 18 17 15 15 15 15 14 13 12 10 4 6 5 2 3 6 3 3 4 5 5 5 5 10 10 8 5 1 2 3 0 3 4 6 6 6 5 3 5 3 6 8 2 11 8 5
17 15 15 16 16 14 14 14 12 11 10 5 7 8 3 3 10 7 4 3 5 3 3 7 4 7 7 7 1 3 2 6 4 2 4 4 3 4 4 5 5 15 7 10 5 3 7
15 15 15 16 13 12 13 14 12 11 7 7 4 4 3 4 8 7 17 19 14 16 3 4 3 1 3 3 4 3 4 4 4 4 5 5 6 6 5 4 7 9 9 2 4 6 6
Wind_Direction
16 15 12 8 2 0 358 357 356 353 349 345 342 339 336 333 330 329 326 323 320 319 321 323 326 331 317 330 249 247 111 117 155 179 209 210 266 184 240 258 338 204 120 156 153 149 121
9 9 4 2 0 358 354 353 351 351 347 343 338 336 333 330 327 325 323 319 315 311 313 312 314 329 266 276 248 263 131 137 166 183 200 175 218 193 281 268 36 145 138 149 140 131 118
7 2 359 359 356 352 352 349 347 345 343 341 336 333 330 328 326 324 320 317 311 307 303 294 294 294 267 237 290 41 123 199 181 190 215 197 225 152 349 327 347 142 131 129 150 151 126
358 356 354 351 349 348 345 344 341 341 338 337 335 331 329 326 324 322 319 314 308 305 289 251 258 195 249 249 255 284 196 300 227 256 198 247 136 240 199 255 336 141 120 134 218 145 165
354 350 348 348 346 343 341 339 339 337 337 334 333 330 328 326 324 322 319 313 308 308 175 170 149 121 269 300 165 236 169 207 197 261 264 273 253 216 297 96 359 322 153 137 160 252 139
353 350 348 348 344 341 338 336 335 334 333 332 330 328 326 325 323 323 320 306 278 73 170 191 251 345 273 241 270 189 192 179 171 177 328 220 167 161 41 87 228 227 109 163 170 177 107
348 347 347 345 342 339 337 335 334 331 331 330 328 325 324 324 320 326 336 347 0 9 166 224 236 232 274 267 303 203 202 146 158 120 182 245 119 215 232 198 207 216 133 175 196 151 123
346 343 342 339 338 337 336 334 332 330 329 328 327 325 323 322 319 318 283 244 221 75 299 244 247 246 253 260 287 258 148 166 144 195 172 308 214 227 226 210 229 233 199 200 220 163 115
343 339 336 336 335 335 335 333 331 330 327 327 327 325 325 322 318 345 212 234 285 347 243 259 226 228 238 177 235 251 160 179 151 191 200 181 239 226 217 268 281 285 201 199 185 145 66
339 336 334 334 331 333 333 331 331 329 326 325 326 323 329 330 3 337 266 295 320 296 327 282 237 241 212 174 270 219 186 162 205 199 191 198 245 237 231 244 176 268 213 221 159 158 158
336 334 334 332 330 334 333 330 329 327 326 325 323 319 323 327 289 299 276 332 321 61 321 253 238 198 146 153 225 205 174 130 199 178 136 230 216 224 237 237 172 240 211 199 167 176 108
334 336 333 331 336 339 333 329 327 328 325 324 319 312 320 298 214 243 310 306 30 47 254 288 206 177 107 154 242 181 173 142 179 185 209 211 242 180 221 247 216 245 254 52 53 94 117
331 333 334 334 340 338 332 329 328 327 324 323 315 306 292 258 222 162 307 13 58 176 301 273 32 22 177 170 223 166 182 192 204 162 217 295 237 245 209 237 274 166 65 318 353 85 206
338 333 338 335 338 335 332 331 329 329 326 324 316 308 246 203 218 279 358 63 207 225 227 280 345 327 266 173 221 216 172 196 223 132 161 214 254 223 214 187 219 208 156 157 198 248 250
330 330 335 335 334 334 335 334 332 331 330 324 321 304 265 230 179 129 105 177 204 203 233 323 11 304 260 254 225 210 181 206 211 175 203 169 247 263 222 220 163 238 147 188 134 65 67
322 327 334 333 333 333 332 333 335 333 333 326 314 308 264 150 154 102 98 235 229 204 325 331 180 242 280 291 319 209 203 194 207 193 165 219 275 241 253 183 250 185 175 94 359 161 202
321 320 326 332 333 333 333 336 338 337 336 327 356 332 258 133 136 62 197 231 268 261 289 258 232 267 274 288 280 275 221 220 196 209 165 193 139 263 61 213 207 74 124 61 118 137 159
318 319 322 333 333 332 333 338 340 340 337 23 354 321 342 109 99 191 214 227 256 262 292 288 283 266 268 294 300 274 218 200 192 202 196 195 171 235 247 248 228 163 171 145 135 230 150
319 318 321 325 330 332 332 336 339 340 352 335 315 266 287 118 256 258 277 271 263 268 250 254 256 266 277 281 283 237 206 216 214 197 200 191 211 236 306 333 354 161 165 140 107 89 184
313 315 315 315 322 330 332 335 337 333 334 331 303 318 308 29 303 352 5 286 284 270 269 279 282 276 288 274 255 278 277 264 196 202 205 158 143 192 222 213 183 194 161 160 139 138 173
305 306 311 311 311 322 330 335 336 333 329 191 220 248 233 319 310 325 257 270 293 306 276 255 292 48 341 274 290 329 323 324 290 221 211 155 179 153 214 222 209 203 182 159 151 180 163
297 300 303 309 314 313 324 333 336 338 335 146 298 7 342 277 278 289 272 281 323 307 256 278 259 351 346 352 320 314 343 331 306 327 233 177 217 150 228 229 212 163 210 159 152 130 70
298 295 297 295 298 308 315 324 334 340 355 339 325 330 84 278 306 316 22 329 309 317 306 67 322 331 20 318 304 242 231 233 240 278 299 151 137 117 215 158 116 69 123 215 245 73 198
291 297 299 302 303 300 302 312 322 335 359 289 299 285 293 275 316 304 319 310 308 304 265 275 198 176 284 301 300 311 264 336 337 292 259 151 120 108 173 106 131 233 182 106 93 7 326
290 291 295 301 303 303 302 299 310 321 323 236 257 280 284 284 325 299 342 307 308 320 312 2 3 352 298 346 360 347 348 5 309 60 348 3 107 86 130 143 200 43 27 154 137 343 317
284 288 288 289 294 302 304 304 297 309 321 306 267 216 291 291 249 358 311 325 316 323 318 318 343 319 5 62 75 355 182 244 282 324 33 50 58 99 85 119 167 219 297 356 101 18 324
280 282 280 281 286 291 294 297 300 305 317 315 274 290 257 271 266 49 284 294 317 307 274 323 331 350 32 354 55 149 270 353 312 11 353 10 12 57 87 130 312 274 290 212 77 221 321
281 281 280 279 277 275 291 293 291 300 312 330 283 274 246 270 285 248 291 337 331 331 319 304 349 355 24 18 318 285 182 229 105 340 106 78 56 10 2 54 25 352 313 83 209 49 68
284 276 274 281 277 282 284 290 294 296 299 315 273 312 309 211 257 296 268 256 239 247 238 301 183 108 200 357 337 3 322 12 166 97 334 45 153 150 92 157 260 320 70 91 81 90 59